Caldwell, ID

1:40 AM MST on January 23, 2017 (GMT -0700)
Caldwell Industrial

Weather History for KEUL - July, 2013

Change the Weather History Date:

Thursday, July 25, 2013

  Actual Average (KBOI) Record (KBOI)
Temperature  
Mean Temperature 80 °F -  
Max Temperature 100 °F 91 °F 109 °F (1891)
Min Temperature 60 °F 58 °F 46 °F (1993)
Cooling Degree Days 15    
Growing Degree Days 30 (Base 50)    
Moisture  
Dew Point 46 °F    
Average Humidity 35    
Maximum Humidity 63    
Minimum Humidity 12    
Precipitation  
Precipitation 0.00 in - - ()
Sea Level Pressure  
Sea Level Pressure 29.99 in    
Wind  
Wind Speed 4 mph (NW)    
Max Wind Speed 14 mph    
Max Gust Speed 18 mph    
Visibility 10 miles    
Events      
Averages and records for this station are not official NWS values.
T = Trace of Precipitation, MM = Missing Value Source: NWS Daily Summary

Daily Weather History Graph

Daily Weather History Graph

Search for Another Location

Airport or City:

Trip Planner

Search our weather history database for the weather conditions in past years. The results will help you decide how hot, cold, wet, or windy it might be!

Date:

Astronomy

Jul. 25, 2013 Rise Set
Actual Time 6:28 AM MDT 9:16 PM MDT
Civil Twilight 5:55 AM MDT 9:50 PM MDT
Nautical Twilight 5:12 AM MDT 10:32 PM MDT
Astronomical Twilight 4:23 AM MDT 11:21 PM MDT
Moon 10:50 PM MDT (7/25) 10:11 AM MDT (7/25)
Length of Visible Light 15h 54m
Length of Day
14h 48m
Waning Gibbous, 88% of the Moon is Illuminated
Jul 25
Waning Gibbous
Jul 29
Last Quarter
Aug 6
New
Aug 14
First Quarter
Aug 20
Full

Hourly Weather History & Observations

Time (MDT) Temp. Dew Point Humidity Pressure Visibility Wind Dir Wind Speed Gust Speed Precip Events Conditions
12:15 AM 69.8 °F 48.2 °F 46% 29.95 in 10.0 mi East 4.6 mph - N/A   Clear
12:35 AM 69.8 °F 48.2 °F 46% 29.95 in 10.0 mi East 4.6 mph - N/A   Clear
12:55 AM 66.2 °F 48.2 °F 52% 29.95 in 10.0 mi Calm Calm - N/A   Clear
1:15 AM 66.2 °F 48.2 °F 52% 29.96 in 10.0 mi NE 5.8 mph - N/A   Clear
1:35 AM 66.2 °F 50.0 °F 56% 29.96 in 10.0 mi Calm Calm - N/A   Clear
1:55 AM 68.0 °F 50.0 °F 52% 29.96 in 10.0 mi Calm Calm - N/A   Clear
2:15 AM 68.0 °F 48.2 °F 49% 29.97 in 10.0 mi Calm Calm - N/A   Clear
2:35 AM 68.0 °F 48.2 °F 49% 29.97 in 10.0 mi Calm Calm - N/A   Clear
2:55 AM 66.2 °F 48.2 °F 52% 29.97 in 10.0 mi Calm Calm - N/A   Clear
3:15 AM 66.2 °F 48.2 °F 52% 29.97 in 10.0 mi SW 4.6 mph - N/A   Clear
3:35 AM 66.2 °F 48.2 °F 52% 29.98 in 10.0 mi SW 3.5 mph - N/A   Clear
3:55 AM 66.2 °F 46.4 °F 49% 29.97 in 10.0 mi Calm Calm - N/A   Clear
4:15 AM 64.4 °F 48.2 °F 56% 29.97 in 10.0 mi WSW 3.5 mph - N/A   Clear
4:35 AM 64.4 °F 48.2 °F 56% 29.98 in 10.0 mi Calm Calm - N/A   Clear
4:55 AM 62.6 °F 46.4 °F 55% 29.98 in 10.0 mi Calm Calm - N/A   Clear
5:15 AM 60.8 °F 46.4 °F 59% 29.98 in 10.0 mi Calm Calm - N/A   Clear
5:35 AM 60.8 °F 46.4 °F 59% 29.98 in 10.0 mi WSW 3.5 mph - N/A   Clear
5:55 AM 62.6 °F 46.4 °F 55% 29.98 in 10.0 mi West 4.6 mph - N/A   Clear
6:15 AM 60.8 °F 46.4 °F 59% 29.98 in 10.0 mi West 3.5 mph - N/A   Clear
6:35 AM 60.8 °F 46.4 °F 59% 29.99 in 10.0 mi NNW 3.5 mph - N/A   Clear
6:55 AM 60.8 °F 48.2 °F 63% 30.00 in 10.0 mi NNW 3.5 mph - N/A   Clear
7:15 AM 64.4 °F 48.2 °F 56% 29.99 in 10.0 mi NW 4.6 mph - N/A   Clear
7:35 AM 64.4 °F 50.0 °F 59% 30.00 in 10.0 mi Calm Calm - N/A   Clear
7:55 AM 66.2 °F 50.0 °F 56% 30.01 in 10.0 mi WNW 4.6 mph - N/A   Clear
8:15 AM 69.8 °F 46.4 °F 43% 30.01 in 10.0 mi WNW 6.9 mph - N/A   Clear
8:35 AM 71.6 °F 46.4 °F 41% 30.02 in 10.0 mi WNW 4.6 mph - N/A   Clear
8:55 AM 71.6 °F 46.4 °F 41% 30.03 in 10.0 mi WNW 4.6 mph - N/A   Clear
9:15 AM 73.4 °F 48.2 °F 41% 30.03 in 10.0 mi NW 4.6 mph - N/A   Clear
9:35 AM 75.2 °F 46.4 °F 36% 30.03 in 10.0 mi NW 5.8 mph - N/A   Clear
9:55 AM 78.8 °F 46.4 °F 32% 30.04 in 10.0 mi NW 5.8 mph - N/A   Clear
10:15 AM 80.6 °F 44.6 °F 28% 30.04 in 10.0 mi NW 5.8 mph - N/A   Clear
10:35 AM 82.4 °F 44.6 °F 26% 30.04 in 10.0 mi NW 8.1 mph - N/A   Clear
10:55 AM 82.4 °F 42.8 °F 25% 30.04 in 10.0 mi NNW 8.1 mph - N/A   Clear
11:15 AM 84.2 °F 44.6 °F 25% 30.04 in 10.0 mi NW 6.9 mph - N/A   Clear
11:35 AM 86.0 °F 44.6 °F 23% 30.04 in 10.0 mi NW 8.1 mph - N/A   Clear
11:55 AM 87.8 °F 44.6 °F 22% 30.04 in 10.0 mi WNW 9.2 mph - N/A   Clear
12:15 PM 87.8 °F 44.6 °F 22% 30.04 in 10.0 mi WNW 8.1 mph - N/A   Clear
12:35 PM 87.8 °F 46.4 °F 24% 30.04 in 10.0 mi NW 6.9 mph - N/A   Clear
12:55 PM 89.6 °F 44.6 °F 21% 30.04 in 10.0 mi WNW 6.9 mph - N/A   Clear
1:15 PM 89.6 °F 44.6 °F 21% 30.03 in 10.0 mi NNW 8.1 mph - N/A   Clear
1:35 PM 93.2 °F 42.8 °F 17% 30.03 in 10.0 mi NW 8.1 mph - N/A   Clear
1:55 PM 93.2 °F 44.6 °F 19% 30.02 in 10.0 mi NNW 10.4 mph - N/A   Clear
2:15 PM 95.0 °F 42.8 °F 16% 30.01 in 10.0 mi NW 10.4 mph - N/A   Clear
2:35 PM 96.8 °F 44.6 °F 17% 30.01 in 10.0 mi NNW 6.9 mph - N/A   Clear
2:55 PM 96.8 °F 46.4 °F 18% 30.01 in 10.0 mi NW 6.9 mph - N/A   Clear
3:55 PM 100.4 °F 42.8 °F 14% 29.99 in 10.0 mi NNW 9.2 mph - N/A   Clear
4:15 PM 98.6 °F 42.8 °F 15% 29.99 in 10.0 mi NNW 5.8 mph - N/A   Clear
4:35 PM 100.4 °F 39.2 °F 12% 29.98 in 10.0 mi NW 9.2 mph - N/A   Clear
4:55 PM 98.6 °F 39.2 °F 13% 29.98 in 10.0 mi NNW 4.6 mph - N/A   Clear
5:15 PM 100.4 °F 39.2 °F 12% 29.97 in 8.0 mi NNW 9.2 mph - N/A   Clear
5:35 PM 100.4 °F 39.2 °F 12% 29.97 in 10.0 mi North 11.5 mph 16.1 mph N/A   Clear
5:55 PM 98.6 °F 39.2 °F 13% 29.97 in 10.0 mi North 9.2 mph - N/A   Clear
6:15 PM 98.6 °F 39.2 °F 13% 29.97 in 10.0 mi North 9.2 mph - N/A   Clear
6:35 PM 98.6 °F 39.2 °F 13% 29.96 in 10.0 mi North 9.2 mph - N/A   Clear
6:55 PM 98.6 °F 42.8 °F 15% 29.96 in 10.0 mi NNE 8.1 mph - N/A   Clear
7:15 PM 96.8 °F 42.8 °F 16% 29.95 in 10.0 mi NNE 6.9 mph - N/A   Clear
7:35 PM 96.8 °F 44.6 °F 17% 29.95 in 10.0 mi NNE 4.6 mph - N/A   Clear
7:55 PM 96.8 °F 46.4 °F 18% 29.95 in 10.0 mi North 3.5 mph - N/A   Clear
8:15 PM 93.2 °F 51.8 °F 24% 29.95 in 10.0 mi NE 3.5 mph - N/A   Clear
8:35 PM 91.4 °F 51.8 °F 26% 29.95 in 10.0 mi NE 3.5 mph - N/A   Clear
8:55 PM 89.6 °F 46.4 °F 22% 29.95 in 10.0 mi Calm Calm - N/A   Clear
9:15 PM 86.0 °F 46.4 °F 25% 29.96 in 10.0 mi Calm Calm - N/A   Clear
10:35 PM 80.6 °F 48.2 °F 32% 29.98 in 10.0 mi SSW 3.5 mph - N/A   Clear
10:55 PM 77.0 °F 48.2 °F 36% 29.98 in 10.0 mi South 3.5 mph - N/A   Clear
11:15 PM 73.4 °F 50.0 °F 44% 29.99 in 10.0 mi Calm Calm - N/A   Clear
11:35 PM 69.8 °F 50.0 °F 49% 29.99 in 10.0 mi ENE 5.8 mph - N/A   Clear
11:55 PM 69.8 °F 50.0 °F 49% 30.01 in 10.0 mi NNW 13.8 mph 18.4 mph N/A   Clear